Skip Page Navigation
NASA JPL Caltech
NASA Logo - Jet Propulsion Laboratory + View the NASA Portal
+ Center for Near-Earth Object Studies
JPL Home Earth Solar System Stars & Galaxies Technology
JPL Solar System Dynamics
BODIES ORBITS EPHEMERIDES TOOLS PHYSICAL DATA DISCOVERY FAQ SITE MAP
IMPORTANT: The SSD Announcement email list is now available. Major changes are coming in the near future, including possible hostname and/or URL changes. To be notified of such changes, subscribe to this email list.

Please visit this page for more details.


JPL Small-Body Database Browser
Search: [ help ]  
14675 (1999 VS7)
Classification: Main-belt Asteroid          SPK-ID: 2014675
Ephemeris | Orbit Diagram | Orbital Elements | Mission Design | Physical Parameters | Discovery Circumstances ]

[ show orbit diagram ]
Orbital Elements at Epoch 2458600.5 (2019-Apr-27.0) TDB
Reference: JPL 28 (heliocentric ecliptic J2000)
 Element Value Uncertainty (1-sigma)   Units 
e .1040876497512006 3.3548e-08  
a 2.630086760580811 1.4706e-08 au
q 2.356327211030205 8.7475e-08 au
i 13.87209192182773 6.0064e-06 deg
node 226.85700260109 1.5709e-05 deg
peri 265.5630492207719 3.3353e-05 deg
M 137.4455499671328 2.9245e-05 deg
tp 2458005.685259999700
(2017-Sep-09.18526000)
0.00012609 TDB
period 1557.950086061814
4.27
1.3067e-05
3.578e-08
d
yr
n .2310728714743409 1.9381e-09 deg/d
Q 2.903846310131416 1.6237e-08 au
  Orbit Determination Parameters
   # obs. used (total)      1064  
   data-arc span      16358 days (44.79 yr)  
   first obs. used      1973-09-29  
   last obs. used      2018-07-13  
   planetary ephem.      DE431  
   SB-pert. ephem.      SB431-N16  
   condition code      0  
   norm. resid. RMS      .51369  
   source      ORB  
   producer      Otto Matic  
   solution date      2018-Oct-03 17:25:51  

Additional Information
 Earth MOID = 1.4195 au 
 Jupiter MOID = 2.28384 au 
 T_jup = 3.351 
[ show covariance matrix ]

Ephemeris | Orbit Diagram | Orbital Elements | Mission Design | Physical Parameters | Discovery Circumstances ]

Physical Parameter Table
Parameter Symbol Value Units Sigma Reference Notes
absolute magnitude H 14.1   n/a MPO347641  
diameter diameter 4.426 km 0.354 urn:nasa:pds:neowise_diameters_albedos::2.0[mainbelt] (http://adsabs.harvard.edu/abs/2011ApJ...741...68M)  
geometric albedo albedo 0.272   0.027 urn:nasa:pds:neowise_diameters_albedos::2.0[mainbelt] (http://adsabs.harvard.edu/abs/2011ApJ...741...68M)  

14675 (1999 VS7)          Discovered 1999-Nov-07 by Korlevic, K. at Visnjan
Reference: 20000418/Numbers.arcLast Updated: 2004-04-19

Alternate Designations
 1999 VS7 = 1998 QS64 = 5480 T-2 
Ephemeris | Orbit Diagram | Orbital Elements | Mission Design | Physical Parameters | Discovery Circumstances ]
ABOUT SSD CREDITS/AWARDS PRIVACY/COPYRIGHT GLOSSARY LINKS
FirstGov
(server date/time)  
NASA Home Page
Site Manager:   Ryan S. Park
Webmaster  Alan B. Chamberlin